Miscellaneous Local Product
Issued by NWS Hastings, NE

Home | Current Version | Previous Version | Text Only | Print | Product List | Glossary Off
Versions: 1 2 3 4 5 6 7 8 9 10 11 12 13 14 15 16 17 18 19 20 21 22 23 24 25 26 27 28 29 30 31 32 33 34 35 36 37 38 39 40 41 42 43 44 45 46 47 48 49 50

039
AXUS43 KGID 150602
MISGRI

GID CWA HOURLY WEATHER ROUNDUP
NATIONAL WEATHER SERVICE HASTINGS NE
1200 AM CST MON JAN 15 2018

NOTE: "FAIR" INDICATES FEW OR NO CLOUDS BELOW 12,000 FEET WITH NO
SIGNIFICANT WEATHER AND/OR OBSTRUCTIONS TO VISIBILITY.

...SOUTH CENTRAL NEBRASKA...

CITY           SKY/WX    TMP DP  RH WIND       PRES   REMARKS
GRAND ISLAND   CLOUDY    24  15  68 N21       30.28R WCI   9
KEARNEY        CLOUDY    28  22  78 N21G28    30.28R WCI  15
HASTINGS       CLOUDY    28  19  69 N22G30    30.27R WCI  14
ORD            MOCLDY    18  10  71 N21G28    30.32R WCI   1
YORK           CLOUDY    27  23  86 N20G28    30.28R WCI  13
AURORA         CLOUDY    26  21  80 N24       30.27R WCI  11
LEXINGTON      CLOUDY    28  20  71 NW23G30   30.29R WCI  14
HOLDREGE       CLOUDY    29  26  86 N17G25    30.28R WCI  18
HEBRON         CLOUDY    33  27  77 N14G20    30.25R WCI  24

...NEBRASKA PANHANDLE...

CITY           SKY/WX    TMP DP  RH WIND       PRES   REMARKS
CHADRON        MIX PCPN  15  10  80 NE12      30.40R WCI   2
ALLIANCE       LGT SNOW  20  18  92 N17       30.30R FOG     WCI   5
SCOTTSBLUFF    LGT SNOW  28  26  92 N6        30.31R FOG     WCI  22
SIDNEY         LGT SNOW  26  24  92 NE14      30.27R FOG     WCI  14

...WESTERN AND NORTH CENTRAL NEBRASKA...

CITY           SKY/WX    TMP DP  RH WIND       PRES   REMARKS
VALENTINE      CLEAR      9  -1  64 NW17G25   30.37R WCI  -9
AINSWORTH      PTCLDY     9   2  73 NW18G26   30.35R WCI  -9
ONEILL         PTCLDY    10   4  77 NW24G30   30.33R WCI -10
BROKEN BOW     CLOUDY    20  11  68 N20       30.30R WCI   4
IMPERIAL       LGT SNOW  28  26  92 N17       30.29R FOG     WCI  16
NORTH PLATTE   CLOUDY    27  20  75 N14       30.30R WCI  16
MCCOOK         LGT SNOW  32  31  96 N16       30.28R FOG     WCI  21

...EASTERN NEBRASKA...

CITY           SKY/WX    TMP DP  RH WIND       PRES   REMARKS
NORFOLK        FLURRIES  14   7  73 N24G40    30.29R WCI  -5
SO SIOUX CITY  CLEAR     12   4  70 N21       30.29R WCI  -7
TEKAMAH        CLEAR     15   4  61 NW22G33   30.30R WCI  -3
COLUMBUS       FLURRIES  18  13  80 N16       30.31R WCI   3
ALBION         FLURRIES  19  11  70 N21G30    30.30R WCI   2
OMAHA EPPLEY   MOCLDY    19   8  62 NW23G31   30.26R WCI   2
OFFUTT AFB     CLEAR     20   8  60 NW15G21   30.26R WCI   6
MILLARD        CLEAR     21  10  61 NW16G35   30.28R WCI   7
LINCOLN        CLOUDY    24  17  74 N21G30    30.29R WCI   9
NEBRASKA CITY  CLOUDY    26  19  75 N25       30.24R WCI  11
BEATRICE       CLOUDY    29  24  82 N12       30.26R WCI  20
FALLS CITY     CLOUDY    30  22  72 N13G24    30.23R WCI  20

...NORTHERN KANSAS...

CITY           SKY/WX    TMP DP  RH WIND       PRES   REMARKS
GOODLAND       CLOUDY    37  28  70 N12       30.22R WCI  29
HILL CITY      FLURRIES  34  33  96 N13       30.27R WCI  25
NORTON         LGT SNOW  34  28  80 NW15      30.27R WCI  24
PHILLIPSBURG   LGT SNOW  34  34 100 NW8       30.29R WCI  27
SMITH CENTER   FLURRIES  32  30  93 N12       30.27R WCI  23
HAYS           CLOUDY    37  33  85 N17       30.27R WCI  27
RUSSELL        CLOUDY   N/A N/A N/A N15       30.23R
CONCORDIA      CLOUDY    34  27  75 N15G24    30.24R WCI  24
SALINA         LGT RAIN  37  34  89 N22       30.24R WCI  26
TOPEKA         LGT RAIN  34  33  96 NW6       30.20R WCI  29



USA.gov is the U.S. government's official web portal to all federal, state and local government web resources and services.